Terug naar catalogus

OPS 7613

P/L 1

ActiefNavigatieLEO
NORAD 4256·PAYLOAD·🇺🇸 United States

Gelanceerd Sep 30, 1969 vanaf Vandenberg Space Force Base

Loading…

Volgende Passages (komende 24 uur)

TLE

VersSource: Space-Track

Epoch: Sep 14, 2026, 09:09 UTC

1 04256U 69082B   26257.38151533  .00000088  00000-0  97543-4 0  9991
2 04256  70.0090 133.4029 0021737 304.4201  55.4851 13.99215240902949

Volg OPS 7613 in realtime met AllMySat

Download on the App Store